GFSCGP_250_rhum_000.txt.gz
RH
15 14 15 16 23 24 25 26 23 23 27 30 42 46 42 63 86 82 83 93 86 100 100 97 100 100 98 93 88 90 62 46 48 50 57 66 68 67 58 45 49 55 64 73
16 16 18 21 26 23 21 22 25 22 23 28 40 38 36 43 57 59 50 58 64 66 77 62 78 98 95 92 81 64 44 38 39 44 45 43 46 49 50 50 55 56 66 72
18 16 17 17 18 21 23 22 19 16 16 32 27 24 27 34 33 41 52 53 71 92 100 74 76 75 81 71 65 54 40 30 34 47 54 46 58 65 69 70 74 77 85 91
19 19 19 19 19 22 26 21 20 17 22 20 28 27 33 43 43 48 62 60 67 80 89 89 72 70 68 74 73 73 66 47 54 60 57 52 68 64 60 59 59 57 59 66
19 22 23 22 26 30 29 28 33 22 21 25 25 24 26 31 41 42 38 32 38 55 63 65 58 51 60 75 78 72 68 87 100 100 100 100 100 100 82 70 64 61 58 59
21 25 28 28 30 37 44 32 27 30 32 30 27 24 23 18 15 20 25 19 21 35 36 34 39 40 51 57 59 56 89 100 100 100 99 100 100 86 65 59 60 65 62 67
23 24 27 35 47 63 50 49 35 23 30 33 32 32 31 23 19 15 15 16 17 24 26 30 31 36 37 31 60 91 69 62 58 55 63 73 83 77 74 69 62 52 56 55
26 24 34 34 49 40 41 40 44 48 42 43 40 36 30 24 22 24 24 26 28 32 31 29 30 26 31 51 56 51 45 41 49 58 66 68 58 50 46 52 47 45 51 62
22 30 36 38 43 42 47 48 44 42 43 44 43 39 31 29 26 27 27 28 34 43 41 38 53 60 47 56 62 57 48 56 65 66 64 52 53 64 68 56 60 77 88 88
25 25 31 40 42 39 29 31 34 33 28 27 30 34 45 32 27 25 27 48 62 58 61 57 47 45 51 58 61 70 75 65 57 56 57 68 80 82 81 75 65 51 45 45
21 22 26 28 27 22 22 22 24 25 26 27 23 38 44 33 28 29 45 45 42 44 45 44 41 38 40 47 55 61 63 66 81 96 99 93 77 60 51 43 40 42 41 39
20 23 24 25 23 22 23 22 20 18 23 30 29 49 47 52 45 66 58 49 47 48 46 36 33 44 56 70 67 78 97 100 83 76 66 58 48 43 43 43 43 41 42 36
20 22 21 19 20 19 22 28 34 41 47 44 40 32 35 33 37 44 52 50 46 47 49 63 79 94 88 99 99 82 67 72 79 64 47 46 50 52 46 42 38 36 27 19
17 18 18 20 26 38 68 78 80 80 95 81 85 60 58 58 60 66 61 59 79 88 95 92 92 99 87 64 61 73 81 64 54 52 51 53 50 41 28 23 20 16 12 9
33 32 36 48 50 50 64 58 68 84 83 65 71 81 75 72 65 60 73 86 76 67 72 80 74 66 62 56 64 61 54 51 54 56 51 41 32 21 17 14 12 11 11 11
59 55 55 100 71 70 90 77 80 83 84 79 65 65 68 72 77 83 72 63 85 81 69 57 52 58 58 60 59 57 62 65 57 44 33 27 17 15 13 12 11 11 10 10
59 53 57 79 87 78 97 84 84 70 64 64 68 74 82 82 70 59 52 74 75 65 59 46 56 65 70 61 55 58 66 53 38 32 25 16 15 16 14 13 12 11 10 11
67 62 61 53 50 52 67 50 52 48 48 55 67 54 44 42 50 62 84 78 60 81 78 73 69 62 56 60 59 57 49 33 27 23 18 17 17 17 16 15 15 14 15 14
55 56 50 54 44 50 80 57 57 51 58 55 50 46 48 60 63 62 53 66 81 100 96 85 66 60 69 59 63 58 35 29 22 20 19 18 18 17 16 17 17 16 15 12
71 62 60 52 49 51 63 51 47 45 41 40 41 45 48 47 53 61 62 59 65 74 72 70 60 68 78 70 58 42 27 24 20 18 18 17 16 15 14 13 13 13 12 11
71 57 62 55 64 55 52 42 40 42 41 43 47 44 48 57 63 62 53 61 67 77 68 70 76 78 73 68 43 29 22 19 17 15 15 15 13 12 12 12 11 10 10 9
45 45 49 53 42 37 35 34 40 44 42 44 45 55 66 63 69 66 70 88 89 81 93 90 83 74 68 47 25 21 18 16 14 14 14 12 11 11 10 10 10 9 8 6
55 63 56 50 36 34 39 49 53 49 58 58 62 80 70 74 77 77 78 84 80 73 82 69 62 57 36 22 18 17 15 14 13 13 12 10 10 10 10 9 8 6 6 6
62 83 80 43 65 56 69 78 84 100 100 100 92 79 79 78 88 92 72 68 68 70 67 63 50 28 21 19 17 14 13 12 12 12 10 10 10 10 8 6 5 5 5 6
82 82 49 45 67 62 94 95 100 96 80 72 74 80 95 100 100 83 77 70 68 64 54 39 25 19 14 13 12 11 11 11 11 10 10 10 9 7 5 5 5 5 6 6
99 77 73 69 85 87 100 100 82 76 79 92 98 98 96 88 88 78 72 73 62 43 31 20 16 14 12 10 10 10 10 10 10 10 9 8 5 5 5 5 5 5 5 6

GFSCGP_250_rhum_003.txt.gz
RH
14 13 13 16 19 19 21 20 21 22 27 30 33 37 43 51 50 62 62 61 68 84 92 93 73 76 77 66 60 57 57 55 62 72 78 68 61 53 55 58 66 77 74 66
18 15 15 17 17 20 23 27 28 28 25 22 22 26 27 30 27 42 42 40 50 55 59 60 66 55 43 42 46 41 39 41 44 43 46 51 54 57 53 43 46 54 49 53
19 16 16 18 21 22 28 27 22 23 22 21 17 18 23 22 23 28 32 32 43 36 45 29 42 49 45 38 37 36 37 39 36 33 44 53 58 61 49 72 85 90 89 78
19 18 17 18 19 21 21 20 20 21 19 23 17 17 22 25 24 35 39 41 33 38 36 26 40 46 42 42 57 67 85 91 89 99 98 100 100 100 100 100 100 100 99 98
18 18 19 21 20 20 21 23 24 28 24 22 19 19 20 20 20 22 25 21 22 23 30 46 42 40 43 65 85 82 87 84 88 86 98 100 99 100 100 100 100 100 100 88
20 19 20 24 28 28 27 30 31 30 25 20 20 21 24 21 19 19 23 21 21 26 32 33 33 36 48 48 53 55 54 66 75 76 75 67 58 56 57 55 47 47 47 44
21 22 21 22 28 35 41 30 32 36 38 40 39 30 24 20 19 23 22 19 24 28 27 27 28 34 42 43 41 40 37 31 33 37 39 42 46 39 34 32 28 33 34 32
26 21 21 21 29 44 52 51 43 41 45 48 40 37 41 33 27 28 31 34 31 25 27 28 33 32 29 30 35 36 37 41 42 42 42 41 38 41 48 50 46 39 46 48
25 20 20 22 28 33 40 35 31 26 26 27 28 28 24 22 25 29 43 51 38 38 35 33 34 41 44 50 53 54 50 52 58 60 59 53 62 59 56 52 45 48 48 43
21 18 20 22 25 28 32 29 27 27 21 21 22 22 28 28 41 64 61 44 44 41 55 59 58 52 49 48 44 48 53 47 45 49 61 61 59 54 52 46 47 48 52 43
17 17 19 22 25 25 28 28 28 22 20 22 20 49 38 45 67 71 62 65 64 60 53 49 49 48 47 44 46 55 58 67 81 81 71 64 58 48 55 63 63 57 40 26
20 17 18 19 20 21 20 20 19 20 30 35 39 61 69 58 61 64 66 65 56 48 51 52 45 47 56 74 79 92 97 92 69 76 65 58 56 56 60 62 56 36 25 22
18 16 17 18 19 19 19 21 30 44 49 50 58 48 51 44 48 51 51 53 59 59 45 49 67 77 71 71 69 67 77 86 68 64 46 55 56 61 63 54 35 27 22 18
31 33 32 30 28 32 40 49 57 54 53 49 59 62 70 72 69 68 65 62 53 45 48 55 58 60 74 80 79 78 72 66 54 50 62 66 60 62 56 36 28 23 20 17
45 40 45 56 56 58 71 58 62 63 61 68 81 86 66 60 62 60 55 50 50 50 50 57 74 90 87 76 74 65 60 60 61 68 64 62 57 41 31 26 24 21 17 16
60 60 75 85 56 54 68 57 53 59 60 62 63 61 60 56 48 46 49 50 52 53 52 81 92 70 73 76 68 69 72 75 74 60 56 49 35 26 19 16 14 14 13 13
67 76 71 68 60 54 99 71 55 49 50 52 58 52 40 40 40 44 41 44 50 54 79 80 77 86 88 79 76 79 73 63 53 48 41 31 22 17 15 13 13 12 12 12
70 58 49 44 48 47 100 50 41 45 44 46 38 36 43 41 38 43 48 68 86 81 64 60 81 99 95 97 84 75 68 50 43 34 23 17 15 14 13 12 12 12 12 11
57 53 47 52 42 38 60 37 37 39 47 43 39 41 39 44 51 74 93 100 83 85 89 92 94 90 81 89 76 66 47 40 32 22 16 14 12 11 11 11 11 11 11 11
48 46 45 45 40 37 48 37 35 34 39 42 48 47 57 55 57 87 96 95 87 94 98 100 92 94 98 73 66 48 40 27 18 14 12 10 9 9 10 10 11 10 10 10
75 71 75 62 59 55 52 43 43 50 58 65 53 60 49 77 95 98 95 79 90 89 90 94 100 87 68 58 42 33 21 16 14 11 9 9 9 10 10 10 10 10 9 8
86 84 81 71 56 53 54 52 67 69 69 67 72 78 98 100 100 89 87 98 90 100 100 94 73 62 58 46 31 23 16 13 9 8 8 8 9 9 9 8 8 7 6 5
70 95 80 64 63 58 52 71 68 67 78 77 88 100 100 98 91 97 100 100 100 100 98 66 51 53 44 30 21 14 11 9 8 8 9 9 9 8 8 7 5 4 5 5
84 95 72 51 74 73 99 92 76 100 100 100 100 95 72 74 98 95 93 86 86 67 51 47 46 40 30 18 12 9 8 8 8 8 8 8 8 7 5 4 4 5 5 5
94 98 63 56 92 91 94 96 100 100 100 100 84 84 86 89 86 92 91 80 56 46 50 48 37 26 16 11 9 8 8 8 8 8 8 7 5 4 4 4 5 5 6 6
100 72 62 78 100 100 100 100 100 99 89 86 71 79 82 73 76 82 78 61 58 49 40 26 18 12 10 8 7 8 8 8 8 8 6 4 4 4 5 5 5 5 5 5

GFSCGP_250_rhum_006.txt.gz
RH
14 14 13 13 14 16 19 21 22 28 32 34 35 32 32 29 33 39 33 26 26 45 38 39 39 37 41 31 24 27 32 30 26 27 33 36 41 48 51 50 55 56 54 53
18 17 15 14 15 16 20 20 21 22 22 22 22 22 18 19 21 26 24 25 25 30 32 34 27 30 36 32 28 27 25 26 30 34 41 44 43 45 49 57 67 72 71 68
18 18 18 16 15 17 17 18 20 23 24 22 22 21 20 19 18 18 18 20 22 26 33 27 24 23 22 24 28 24 29 31 50 67 81 94 99 98 92 96 99 99 97 96
21 20 20 17 16 16 20 22 21 21 23 25 23 21 21 20 19 23 24 24 27 28 28 28 23 22 26 26 28 55 68 81 91 98 95 88 77 74 75 71 65 63 60 58
22 22 21 19 19 18 20 20 20 20 19 21 24 21 20 20 21 25 24 26 31 34 33 36 32 30 29 32 56 72 73 70 82 74 67 66 62 55 46 43 42 44 43 42
37 22 21 19 21 22 20 19 20 21 23 24 24 29 37 36 34 33 36 33 30 31 28 32 37 40 45 48 50 68 72 70 64 64 60 59 47 40 42 38 37 36 36 37
67 44 20 22 22 25 24 25 27 25 24 23 26 27 28 31 31 30 26 22 24 27 32 40 42 45 50 59 65 63 62 60 57 50 48 45 42 44 43 41 44 47 46 45
38 53 29 20 23 26 22 23 20 20 23 25 23 25 19 19 19 18 20 32 40 49 57 58 59 60 58 57 55 55 52 46 43 44 46 46 50 53 55 57 58 50 51 51
34 42 30 24 20 21 23 26 26 25 30 32 30 23 18 20 26 33 44 57 66 64 53 49 49 54 55 56 52 48 43 41 42 49 45 54 70 72 64 60 60 60 58 57
25 29 28 19 15 16 18 20 21 24 26 24 21 23 25 33 47 56 71 66 70 66 63 66 64 59 54 49 43 37 38 45 52 64 71 68 89 63 72 69 64 54 49 50
20 21 23 17 15 15 17 18 18 18 19 19 24 34 39 57 64 69 65 75 71 59 51 50 46 40 36 36 40 47 52 59 73 91 87 74 74 72 64 58 61 53 46 43
18 19 20 18 16 16 16 18 18 19 19 27 43 68 60 61 62 60 59 58 54 43 35 33 33 36 42 53 68 73 90 99 91 95 90 76 77 68 63 58 59 52 48 34
28 29 30 29 24 22 22 24 28 33 42 52 66 60 65 51 56 39 34 41 40 36 35 41 45 56 82 99 97 99 100 95 95 93 76 68 77 64 59 62 61 39 24 19
39 31 34 37 38 42 52 46 47 51 53 45 51 44 44 40 47 56 52 43 42 40 44 59 78 86 82 86 98 98 97 100 100 88 73 71 74 68 56 41 26 18 16 14
53 50 43 38 38 63 93 58 46 41 45 36 35 43 48 60 63 58 53 51 50 66 78 82 75 80 91 97 100 100 95 87 81 82 76 60 54 44 28 19 14 12 11 10
48 45 45 63 52 52 86 63 46 46 44 41 45 53 56 61 58 56 58 52 71 76 62 72 87 90 100 98 93 96 90 80 73 62 55 45 44 24 14 12 10 8 8 7
45 40 57 81 96 87 100 76 46 46 50 54 52 57 59 66 56 53 56 65 56 66 97 99 100 91 87 90 89 78 78 72 66 57 45 30 18 14 12 9 8 7 7 7
54 49 47 46 46 46 95 68 48 53 66 73 64 66 60 50 50 66 61 61 85 100 100 100 100 100 91 85 94 91 77 70 60 48 27 17 14 10 8 8 7 8 8 8
53 55 50 52 44 40 80 57 50 58 74 76 79 69 51 59 74 84 96 97 100 100 100 99 83 77 90 82 87 71 57 51 35 25 15 12 9 8 7 7 8 8 8 8
78 64 55 47 41 39 79 40 45 64 72 56 52 49 59 79 89 98 100 100 100 100 96 85 88 91 80 73 66 57 40 30 18 14 11 9 8 8 8 8 8 8 8 8
66 65 63 55 50 61 58 58 74 79 52 48 50 72 100 91 94 96 100 97 98 100 88 95 83 87 70 62 51 29 17 14 12 11 8 7 8 8 8 9 9 8 6 4
64 67 70 59 58 73 76 76 79 64 61 65 86 99 91 99 100 100 97 100 93 85 79 86 95 87 62 47 33 16 14 13 10 7 7 8 8 9 9 8 6 4 4 4
89 91 65 56 65 87 71 77 73 80 73 72 81 90 100 99 98 99 95 96 90 74 71 95 88 71 44 29 20 14 12 9 7 7 8 8 8 8 6 4 4 4 4 5
100 85 67 57 88 76 77 78 74 60 68 75 92 100 100 99 81 67 64 62 66 70 80 83 68 42 22 19 13 12 8 7 7 8 8 7 5 4 4 4 4 4 6 6
91 68 58 61 69 68 73 74 81 92 100 100 100 99 70 72 67 73 84 70 74 88 75 65 38 21 16 12 10 8 7 7 8 7 5 4 4 4 4 3 5 6 6 6
84 65 70 86 93 87 85 97 100 100 100 99 79 66 72 68 69 62 59 71 88 87 68 33 16 13 11 9 7 7 7 7 6 4 4 4 4 4 4 6 6 5 5 5

GFSCGP_250_rhum_012.txt.gz
RH
14 15 14 14 13 13 12 12 12 13 14 18 22 25 30 33 32 31 34 31 21 18 19 23 20 26 25 25 27 26 27 28 32 40 51 54 58 60 59 58 58 55 52 49
16 16 16 15 14 13 13 14 15 18 19 24 35 31 30 30 31 26 22 22 21 22 24 30 31 31 30 29 24 26 39 55 58 57 66 68 63 58 54 52 52 52 56 61
18 18 18 18 16 15 15 16 18 18 20 23 24 21 21 20 21 20 22 25 27 30 34 29 29 29 25 26 43 60 59 57 64 69 66 56 47 48 51 51 56 61 60 53
21 19 19 18 18 17 16 16 16 16 16 16 16 19 20 20 20 23 26 30 29 23 20 20 19 20 39 47 55 56 69 76 67 52 42 41 46 52 52 55 54 49 45 52
31 32 24 22 20 19 18 17 18 18 19 17 17 18 21 22 21 25 27 24 24 21 21 27 38 51 59 63 71 82 80 59 50 44 40 39 46 50 55 48 43 44 58 68
32 30 29 30 26 22 21 20 18 18 19 19 19 22 30 21 21 23 22 24 22 23 36 49 64 71 71 77 92 90 70 51 50 52 44 48 48 44 40 41 60 71 79 71
22 26 30 32 32 37 23 19 17 18 19 20 20 23 20 21 21 22 27 23 24 38 58 64 76 75 73 88 80 78 57 52 50 47 44 47 50 56 76 73 82 86 96 100
19 18 19 31 31 30 39 28 18 18 18 18 20 25 25 22 22 21 19 23 37 59 67 66 56 58 65 68 68 59 47 48 51 55 57 60 73 90 87 100 100 100 100 99
19 20 20 20 26 29 27 34 21 18 18 18 19 20 19 17 17 19 23 34 55 67 74 70 60 54 52 58 52 53 57 54 62 71 81 87 94 90 91 100 100 100 99 92
31 32 27 22 21 22 26 28 26 19 15 16 17 18 16 18 22 32 44 62 67 63 51 47 47 48 51 49 48 48 45 57 77 80 84 97 100 100 100 100 100 91 93 85
51 59 48 46 32 25 23 21 20 18 17 16 18 24 24 39 47 58 66 62 52 42 43 50 57 55 51 58 56 56 68 71 74 98 100 100 100 98 100 100 95 97 93 85
45 49 50 49 49 44 32 32 32 32 37 37 39 58 69 50 70 69 61 56 52 55 62 64 56 48 50 54 64 76 79 99 100 100 100 100 100 100 100 98 97 78 56 44
44 41 42 44 46 44 40 40 39 41 43 51 80 68 72 67 67 58 52 46 46 55 42 41 46 52 60 74 81 91 100 100 98 100 100 100 100 96 87 72 60 44 36 25
43 43 44 48 50 51 42 34 33 35 43 46 50 58 57 52 47 41 36 38 38 38 44 53 69 76 85 96 97 99 100 100 100 100 100 98 89 89 70 48 39 34 17 12
40 40 40 39 48 57 45 36 40 48 50 43 42 44 41 41 38 37 43 50 52 55 72 87 93 96 91 85 99 100 100 100 100 99 98 89 73 47 38 35 20 12 11 9
43 49 42 37 36 56 60 44 40 37 33 34 35 38 46 43 44 50 52 54 64 81 86 99 86 76 92 100 100 100 100 100 89 91 71 54 33 30 22 12 12 10 6 6
55 47 41 40 35 58 55 61 64 57 52 49 50 49 49 50 53 54 62 67 82 98 92 77 92 100 100 100 100 100 99 89 69 50 36 26 18 14 12 11 7 6 6 6
46 41 38 32 34 62 48 46 52 57 49 46 48 52 55 54 50 54 81 94 100 89 84 94 100 100 100 100 95 100 76 56 38 26 20 14 13 12 9 6 6 6 5 4
51 42 35 35 40 52 45 41 41 40 49 54 55 62 63 61 73 90 100 99 82 79 90 100 94 99 100 100 74 59 47 26 20 15 12 12 11 7 6 6 6 4 3 3
58 47 41 35 37 42 37 36 47 50 51 57 56 63 73 92 100 100 98 82 71 75 74 95 97 100 84 62 51 39 22 16 13 12 12 9 6 6 6 5 4 3 4 4
68 49 42 39 37 46 36 42 48 50 51 55 68 88 99 94 93 96 73 69 70 78 92 94 76 66 55 46 27 18 14 12 12 11 7 6 6 6 4 4 4 4 4 5
66 54 47 46 50 47 48 45 45 56 71 83 98 87 78 86 74 65 78 83 79 96 85 72 62 46 38 25 16 14 14 12 10 6 6 6 5 4 4 4 4 4 5 5
81 60 52 43 70 50 53 56 66 72 72 67 73 96 86 74 71 76 70 93 90 76 58 45 39 29 20 17 16 14 13 9 6 6 5 4 4 4 4 4 5 5 5 4
75 67 70 62 58 57 71 80 87 68 72 93 99 87 74 66 61 82 94 71 66 56 40 36 24 17 18 17 14 11 8 6 6 5 4 4 4 4 4 5 5 6 5 5
87 67 56 59 70 74 75 65 70 88 98 100 90 71 64 70 86 81 64 58 47 39 35 26 17 16 16 13 10 7 6 5 5 4 4 4 5 5 5 5 6 5 5 5
89 70 63 65 65 71 82 99 100 96 83 78 73 66 70 70 64 60 57 51 39 30 22 20 17 14 12 9 7 6 5 4 4 4 5 5 5 5 6 6 5 5 5 5

GFSCGP_250_rhum_015.txt.gz
RH
17 15 14 14 14 13 13 12 12 12 12 12 14 16 20 21 23 23 22 26 25 22 19 19 19 21 27 26 26 26 23 26 43 48 48 51 53 58 61 50 38 35 36 40
15 15 15 15 15 15 14 13 12 13 17 23 29 28 27 26 26 23 25 26 21 19 19 21 25 25 21 21 20 24 43 46 45 47 52 62 66 56 45 41 43 43 42 45
17 17 16 16 16 16 15 14 14 15 19 22 25 26 27 33 30 24 22 20 18 19 24 24 22 22 22 28 43 53 56 58 55 53 65 62 53 40 41 43 43 45 46 46
18 18 19 18 17 17 16 15 15 15 18 21 24 21 26 22 18 18 19 19 19 21 22 22 23 23 32 47 60 65 68 64 66 68 62 67 50 44 47 51 54 59 65 73
25 25 22 19 19 18 18 18 18 18 18 17 20 18 15 19 18 17 18 19 21 22 23 29 24 29 54 68 70 70 66 68 64 65 60 51 48 44 44 62 74 85 94 100
24 28 32 37 35 26 21 20 20 19 16 15 16 17 14 21 16 18 19 21 24 26 29 25 23 40 65 74 73 69 67 54 51 53 52 48 50 56 69 76 84 87 87 85
29 22 20 20 22 33 41 39 25 21 19 16 17 17 15 20 18 17 20 23 24 23 22 23 32 52 71 76 72 74 69 56 54 55 53 55 63 72 81 89 99 100 97 100
22 21 22 20 19 27 29 30 36 40 22 18 18 17 17 16 18 21 22 23 23 22 25 34 54 73 74 66 53 50 50 55 48 46 53 66 75 86 96 99 100 100 100 100
29 27 28 24 21 21 22 26 30 28 35 23 19 19 16 18 19 20 20 20 27 41 58 67 66 56 51 45 47 48 46 51 59 65 70 88 96 92 97 99 95 100 99 98
51 58 61 55 41 31 26 23 22 23 25 26 24 24 16 18 17 20 26 46 64 72 65 54 50 46 44 49 50 45 52 63 75 94 100 78 59 67 90 100 100 100 91 73
59 61 58 53 51 46 39 39 36 34 35 30 31 52 37 31 37 45 54 62 65 62 47 37 40 44 42 44 46 57 72 95 100 90 73 69 96 100 100 91 68 62 69 60
50 47 44 42 45 44 44 44 45 47 50 50 45 58 48 44 44 59 59 56 51 44 43 42 43 44 47 52 61 83 100 88 79 78 97 100 100 100 86 86 64 62 54 44
48 44 40 37 36 36 37 45 50 52 52 51 50 65 55 62 69 54 48 48 48 43 44 47 51 53 54 72 96 99 85 90 100 100 99 94 94 80 62 54 51 43 26 18
46 38 35 34 33 31 30 34 46 53 52 56 61 54 55 49 40 37 39 39 44 46 48 51 56 66 86 97 98 84 98 99 91 95 94 85 63 51 51 44 37 22 16 13
47 42 46 51 50 40 31 28 31 38 44 49 44 38 37 38 42 38 46 50 52 53 55 62 73 96 100 100 100 100 97 97 94 85 59 52 47 44 38 33 20 14 12 12
51 59 63 63 55 53 43 32 32 35 45 44 36 39 44 44 45 50 54 56 62 70 80 99 100 100 100 96 82 89 91 66 45 50 59 53 42 32 23 17 14 12 11 8
60 64 67 72 65 63 43 37 39 43 41 42 40 41 43 45 47 48 52 54 67 81 100 96 88 77 74 75 66 50 62 61 60 43 37 30 23 19 15 13 12 9 6 6
67 66 66 66 62 68 55 53 59 63 47 45 42 41 43 43 48 54 54 60 86 91 79 83 79 72 62 52 76 88 75 52 36 32 24 19 18 14 12 9 6 6 5 4
59 62 63 65 61 62 57 55 52 52 47 47 47 45 46 49 51 58 72 81 87 92 91 84 68 58 68 80 85 63 41 28 25 20 17 14 11 9 6 5 5 5 4 4
67 66 66 60 59 57 50 55 52 44 46 50 56 56 56 59 69 87 87 91 89 85 79 70 62 62 71 60 52 37 24 22 18 14 12 10 7 6 5 5 4 4 4 4
67 70 69 65 58 61 51 48 48 50 47 52 48 46 50 66 77 80 85 91 88 76 64 62 55 59 52 42 31 22 19 16 14 11 8 6 5 5 4 4 4 4 5 4
76 70 72 77 72 49 53 50 50 51 48 45 53 69 78 86 86 92 92 81 71 67 59 55 55 51 35 29 22 18 15 14 11 8 5 5 5 4 4 4 5 5 5 5
88 80 82 58 84 57 49 45 41 41 51 59 70 78 81 91 91 88 82 70 61 58 59 64 53 40 30 23 17 13 13 11 8 6 5 4 4 4 4 5 5 6 5 5
89 77 86 77 81 65 72 60 59 69 74 86 88 94 98 92 87 77 67 67 68 70 71 60 42 30 24 16 13 11 10 8 6 5 4 4 4 4 5 5 5 6 5 5
96 87 72 72 69 62 67 59 55 73 93 100 100 94 94 89 91 83 78 77 77 75 61 43 28 21 16 12 11 10 7 6 5 4 4 4 5 5 5 6 5 5 5 5
100 96 66 64 63 66 54 54 70 88 91 94 92 85 89 86 92 88 84 76 80 62 54 36 18 14 12 11 9 6 5 4 4 4 4 5 5 6 6 6 6 6 6 6

GFSCGP_250_rhum_018.txt.gz
RH
67 60 65 56 48 45 37 27 19 14 16 14 13 12 14 18 20 21 20 20 20 19 18 20 20 19 22 24 23 20 19 21 27 42 43 47 50 43 42 42 35 41 42 39
45 35 28 20 16 14 14 14 13 12 13 13 15 17 24 24 26 25 22 26 24 22 20 20 18 21 24 20 21 22 24 33 44 49 52 55 53 42 36 38 43 46 42 49
15 15 15 15 15 15 14 14 14 13 13 14 17 15 24 22 21 23 28 28 23 18 18 19 19 21 20 21 23 22 26 45 58 57 56 52 43 42 43 46 45 43 47 54
18 17 17 17 16 16 16 15 14 14 14 14 19 18 15 28 20 20 19 20 19 18 19 22 21 19 19 24 23 21 27 48 64 61 54 48 43 45 48 50 47 49 53 61
27 27 25 22 20 19 19 18 16 16 17 16 20 26 12 21 28 20 16 19 19 21 22 19 20 21 22 21 22 24 40 59 59 58 51 49 49 49 54 54 58 64 68 71
28 27 28 28 28 30 27 23 21 19 18 19 18 27 16 14 15 16 18 19 21 21 20 20 19 18 21 24 31 56 66 55 47 45 49 58 53 50 56 65 75 85 91 95
22 22 19 18 19 18 21 28 34 39 46 26 24 28 18 21 16 15 16 19 19 20 20 18 20 22 27 63 73 60 57 55 59 59 53 51 61 60 60 79 94 95 81 79
20 20 21 22 21 20 21 24 28 31 33 33 45 36 23 19 20 16 15 16 17 18 18 18 20 42 72 68 57 42 45 44 43 42 47 51 54 64 78 69 68 72 80 79
55 51 57 54 49 43 36 38 35 30 27 33 35 31 35 31 29 23 20 18 20 25 35 47 67 77 75 51 46 46 47 50 56 58 57 61 76 89 100 98 82 83 77 64
69 65 62 55 50 50 54 53 55 55 62 61 42 36 28 24 28 39 51 41 42 56 48 61 53 48 44 50 50 50 51 48 56 72 88 100 100 98 85 72 58 56 56 56
58 52 47 45 42 42 45 54 61 62 62 56 68 76 35 43 34 36 38 42 45 47 45 40 42 45 50 46 46 54 68 75 82 98 100 89 72 67 65 60 52 53 50 58
52 49 47 41 36 34 35 37 39 40 50 60 68 94 59 50 47 45 43 39 38 45 41 44 46 52 59 59 65 68 63 71 98 100 88 64 53 51 53 52 49 54 51 44
59 52 42 36 35 39 43 45 45 42 38 37 36 52 61 59 64 66 61 56 52 54 57 58 60 59 61 60 62 62 76 87 72 65 65 63 59 50 51 48 48 38 27 22
58 52 45 41 43 49 50 47 45 38 39 41 39 37 46 60 47 43 39 41 47 46 46 49 54 54 50 48 53 83 87 73 71 67 60 58 52 52 47 34 27 21 17 14
56 51 51 50 58 61 61 56 55 44 40 34 37 39 44 46 48 44 42 43 44 40 40 38 42 48 62 76 81 84 92 80 68 57 59 59 54 42 36 25 18 15 12 11
55 59 62 63 65 65 68 69 64 55 42 40 38 39 44 49 49 43 47 50 46 41 46 55 70 80 80 78 86 82 76 66 61 62 57 42 28 20 18 14 12 10 9 6
61 62 58 56 56 57 64 74 68 59 52 42 44 43 44 46 46 42 48 40 39 57 70 68 72 80 91 87 78 73 72 70 60 60 51 34 17 13 12 10 9 6 5 5
61 58 62 66 68 76 65 67 66 64 53 54 47 46 40 40 45 43 42 48 56 56 67 76 87 96 90 84 86 89 84 67 64 56 31 17 11 9 10 8 6 5 4 4
61 61 68 70 74 74 67 78 77 71 62 54 49 44 45 45 46 50 58 69 71 74 87 96 97 88 92 94 84 68 57 60 50 27 20 11 10 8 6 5 5 4 3 4
76 76 74 72 68 69 67 60 66 63 62 60 62 56 60 59 60 74 87 89 93 98 99 99 87 75 75 68 71 65 59 44 36 15 11 10 8 6 5 5 4 4 4 4
65 48 58 70 74 73 69 68 64 56 55 45 53 60 57 52 50 62 77 83 81 92 89 74 69 71 94 83 70 59 39 32 18 10 9 8 7 6 5 4 4 4 5 5
62 54 52 54 65 64 63 56 55 66 53 45 50 56 48 47 60 72 80 78 79 89 77 71 81 92 90 69 62 48 26 16 10 9 8 7 6 5 4 4 4 4 5 5
64 72 65 57 64 58 55 45 39 44 42 45 48 46 50 58 74 83 83 84 93 84 87 91 100 90 83 67 53 28 17 10 9 8 6 6 5 4 4 4 5 6 6 6
76 87 74 60 71 64 77 60 58 50 48 47 46 55 74 89 87 85 85 93 95 88 88 96 98 85 76 50 28 16 10 9 8 6 5 5 4 4 5 5 6 6 6 6
100 90 86 76 73 77 78 62 56 55 54 59 72 80 83 88 90 87 96 98 91 90 97 96 85 71 55 31 13 10 9 8 6 5 5 4 4 5 5 6 6 6 6 6
100 99 92 89 77 74 67 61 60 66 80 81 76 81 86 85 87 91 92 91 93 93 86 79 66 53 39 16 10 10 8 6 6 5 4 4 5 5 6 6 6 6 6 6

GFSCGP_250_rhum_021.txt.gz
RH
19 19 19 24 33 49 60 62 55 50 38 38 38 35 30 32 30 25 19 14 16 18 18 18 19 20 16 16 18 19 21 19 20 22 22 22 28 38 42 42 44 46 45 46
49 62 58 61 55 57 59 43 28 32 25 20 16 16 14 16 14 15 14 15 17 16 20 27 21 15 17 17 18 20 20 20 20 24 20 20 26 36 43 47 42 43 45 46
67 55 52 43 30 22 18 17 15 14 13 14 14 12 15 18 13 16 19 16 14 15 16 16 15 17 17 18 19 21 22 21 22 20 20 30 44 54 51 48 46 47 46 42
18 18 16 17 16 16 16 15 15 14 14 14 15 14 14 20 17 15 17 18 17 18 19 20 19 18 19 20 20 21 21 22 21 24 49 57 50 45 46 46 46 42 40 40
22 21 20 19 19 19 19 18 18 18 17 16 16 15 16 18 23 24 20 16 17 18 18 20 22 21 22 23 24 21 19 20 25 70 72 56 48 47 43 44 47 48 52 55
30 25 25 25 26 25 29 29 29 28 25 23 22 21 19 19 19 21 25 22 20 19 18 17 17 18 20 20 20 19 22 40 57 67 55 50 48 50 62 65 64 61 59 49
24 22 24 21 20 20 18 19 23 23 33 34 39 30 22 26 23 18 18 22 20 21 19 18 17 16 18 23 37 59 80 82 59 47 43 44 43 41 39 41 42 43 43 50
20 20 25 39 36 33 35 37 38 34 31 29 25 31 33 35 25 20 18 16 18 18 20 20 28 36 37 40 42 42 42 43 46 50 51 48 41 45 45 46 68 77 78 76
36 51 55 52 54 56 58 60 57 58 58 58 45 54 62 64 54 44 31 27 31 37 32 45 44 49 48 48 44 42 44 46 53 58 55 56 56 59 87 96 92 80 72 71
62 59 54 48 45 42 42 43 45 49 49 50 45 47 50 56 55 65 62 69 61 53 53 48 50 47 46 45 46 47 51 54 45 48 53 59 70 70 74 82 85 77 72 65
57 52 50 48 43 39 37 38 43 42 44 45 53 41 33 31 36 40 44 50 57 56 56 49 37 34 40 44 52 55 55 51 53 61 71 78 81 79 84 86 76 61 56 55
53 52 53 48 41 37 43 46 43 43 40 42 45 60 43 35 32 29 27 32 44 50 45 38 40 53 66 65 48 42 47 63 78 77 77 84 87 92 78 66 56 58 56 45
62 60 55 48 41 35 32 48 58 67 78 68 49 51 44 60 68 46 55 60 64 62 59 61 63 55 42 43 49 63 78 75 80 94 100 98 76 57 55 51 49 37 25 21
62 58 54 53 60 62 57 55 57 53 53 59 63 56 58 51 45 50 47 45 44 43 42 42 41 44 47 55 66 74 91 100 99 86 68 59 53 44 47 40 28 16 12 10
62 54 49 53 55 56 56 53 52 51 51 47 48 43 44 55 47 38 45 46 43 41 41 43 47 49 62 72 78 84 83 80 75 68 60 54 54 47 35 21 13 9 8 9
60 60 62 60 59 59 64 62 60 63 61 59 54 60 50 49 44 46 44 44 45 50 50 48 51 56 66 71 78 79 84 83 78 67 62 56 48 42 23 11 9 8 7 4
53 57 66 67 64 65 66 73 66 60 58 64 55 59 62 55 46 48 50 47 48 45 46 49 57 69 69 73 82 81 82 77 79 74 68 56 39 22 11 9 8 6 5 4
52 55 60 65 77 82 60 58 68 73 62 74 64 62 58 53 42 41 41 48 57 55 55 63 76 76 83 81 75 74 84 94 82 69 50 35 28 10 8 8 6 5 4 4
61 73 93 97 75 60 48 57 58 73 76 68 63 58 49 44 40 41 47 52 54 60 67 75 79 77 77 75 84 86 88 79 67 54 38 27 15 9 8 7 5 4 4 4
100 99 69 54 56 55 52 60 72 74 72 59 64 58 49 47 53 55 61 66 69 76 72 75 92 89 82 84 80 80 76 72 51 43 32 22 9 8 7 5 4 4 4 4
69 61 59 51 54 58 57 64 76 83 66 59 50 49 52 52 54 60 66 72 71 70 80 82 80 77 84 77 78 81 72 51 36 31 25 10 8 7 5 4 4 4 4 4
66 64 63 60 58 63 57 66 84 84 61 55 52 49 50 56 61 64 67 66 63 67 78 83 84 84 80 77 84 76 60 40 30 24 10 8 7 5 4 4 4 4 5 5
68 78 69 75 74 62 44 62 72 81 81 57 51 61 62 63 65 60 65 76 77 82 87 89 87 78 81 89 81 61 42 30 24 10 8 8 6 5 4 4 4 5 6 6
96 100 85 69 86 77 73 68 75 64 60 54 58 61 63 64 63 71 77 76 88 94 93 83 70 80 86 76 61 42 32 24 12 8 8 7 5 5 5 5 5 6 6 6
100 94 85 74 64 66 55 65 73 70 59 60 63 69 67 69 82 86 81 83 85 86 87 86 87 86 74 65 47 41 28 16 9 8 8 6 5 5 5 6 6 6 6 6
100 100 100 81 87 85 74 90 86 69 64 72 78 75 85 92 85 84 88 88 84 88 75 74 80 75 67 51 42 32 19 10 9 8 6 5 5 5 6 6 6 7 7 6

GFSCGP_250_rhum_024.txt.gz
RH
12 16 20 27 28 31 30 32 33 32 32 32 32 36 41 36 40 38 37 36 36 36 26 26 29 29 25 32 23 24 16 15 16 18 19 21 21 21 22 21 20 40 50 47
15 15 24 21 21 23 29 33 41 50 54 49 44 38 36 33 28 24 20 20 19 21 20 23 23 24 23 19 15 15 15 16 16 17 18 20 22 21 19 20 33 49 51 42
34 43 49 50 55 60 60 57 50 47 36 31 25 22 17 16 15 21 24 20 18 16 16 19 20 19 18 19 19 19 18 16 17 20 22 22 20 19 26 48 60 57 46 45
54 51 41 45 31 28 26 22 19 18 15 16 19 15 16 16 15 14 16 17 18 17 17 17 17 17 17 18 18 18 17 18 19 18 18 19 30 49 58 54 46 42 40 36
23 21 19 18 18 18 17 18 18 18 19 18 17 17 16 16 17 20 18 18 19 20 20 19 17 17 18 14 15 17 17 17 18 24 45 60 60 53 53 51 48 48 49 58
20 21 21 21 26 29 29 26 26 24 24 22 20 22 24 24 25 32 43 41 31 27 28 28 34 30 17 21 21 20 29 41 48 48 45 49 64 64 52 48 53 58 55 54
27 26 26 28 24 21 20 20 22 23 23 25 29 27 32 31 30 31 30 32 32 35 35 42 32 22 34 43 47 53 55 64 64 64 58 50 41 41 41 41 45 52 58 68
24 24 22 26 40 49 58 56 59 55 53 56 57 52 46 42 38 35 44 57 58 66 65 44 35 44 52 59 58 51 42 42 49 54 53 49 44 52 58 68 82 87 81 62
44 62 64 64 58 52 45 46 46 46 42 43 44 46 50 49 39 37 40 41 42 43 43 37 35 31 32 38 40 38 40 45 50 52 61 60 54 62 70 61 53 52 55 63
72 64 53 48 48 49 46 44 48 50 46 39 40 37 40 41 36 37 33 33 31 28 30 35 40 48 56 53 49 46 50 55 48 48 47 51 53 51 55 58 60 63 58 53
58 54 53 52 50 45 43 42 45 52 53 49 34 33 32 33 34 40 43 45 44 40 37 38 40 43 42 42 42 42 44 49 52 48 49 53 55 57 60 64 62 56 57 53
58 58 60 59 52 46 43 50 54 43 37 50 53 51 52 50 48 43 42 42 39 39 43 45 46 44 45 52 55 57 57 47 45 54 60 60 60 68 58 52 55 55 50 45
62 65 63 59 53 49 53 54 51 56 63 59 59 55 52 48 53 54 51 49 45 44 44 44 44 47 48 49 47 45 45 52 60 66 70 73 64 56 57 62 61 51 40 31
73 70 64 56 49 42 48 56 60 64 63 61 53 60 58 60 62 65 67 64 62 58 50 47 49 48 50 54 57 58 60 63 67 69 70 60 70 76 67 52 41 30 24 15
74 70 60 53 56 62 67 65 59 52 46 40 39 43 49 58 64 61 59 58 54 46 42 42 44 49 55 59 59 57 62 68 74 79 86 89 70 57 42 36 31 25 14 8
62 60 52 49 53 62 66 71 59 53 50 45 46 59 57 54 50 48 50 48 43 38 39 48 51 54 51 53 67 67 64 74 94 95 82 65 57 50 40 27 22 10 7 7
62 59 53 55 58 72 88 70 54 54 61 62 74 62 51 58 61 58 54 50 46 46 50 50 52 59 71 72 67 74 93 99 92 84 70 63 56 40 26 18 11 7 7 5
55 55 61 73 85 84 84 68 54 57 75 72 66 70 74 82 77 70 63 58 54 55 60 67 74 74 71 76 87 100 86 84 85 82 62 52 40 28 20 15 8 7 5 4
59 70 98 94 86 69 61 57 50 60 71 63 62 67 64 65 68 68 66 66 69 67 67 71 74 72 80 90 94 88 86 90 78 69 52 39 30 17 16 8 7 6 4 4
100 100 90 69 64 63 63 62 57 74 76 76 79 69 75 80 73 70 61 63 64 66 70 71 68 82 91 90 82 85 78 65 60 50 46 40 20 16 10 7 6 5 5 4
65 56 69 70 65 60 48 57 70 76 72 67 73 60 67 73 84 70 69 73 80 80 81 78 80 84 82 79 86 84 70 68 50 40 36 25 16 11 8 7 6 5 5 5
94 99 93 78 71 64 59 60 78 83 71 88 65 56 72 84 84 77 75 76 72 69 70 76 87 88 87 94 73 76 71 53 41 36 28 17 11 8 8 6 6 6 5 5
100 100 100 100 100 80 74 80 90 61 81 91 77 80 86 91 80 77 73 69 72 75 84 94 94 92 93 72 73 69 59 47 38 28 20 13 8 8 7 6 6 5 5 6
100 100 100 100 94 82 83 95 65 70 90 93 98 86 79 73 68 70 73 80 83 97 100 100 96 98 84 86 64 56 46 39 28 20 13 9 9 8 6 6 6 5 6 6
100 94 85 76 79 90 99 85 81 90 86 74 70 64 69 72 73 79 88 90 99 95 97 93 95 91 84 65 56 44 40 31 20 13 9 9 8 6 6 6 6 6 7 7
100 88 79 75 83 81 83 81 75 77 80 77 70 81 84 82 90 94 95 92 89 86 86 87 90 74 60 56 46 43 30 20 13 10 8 8 7 6 6 6 6 7 7 7

GFSCGP_250_rhum_030.txt.gz
RH
85 77 86 85 82 80 83 85 85 80 81 83 82 81 89 82 77 72 63 58 63 62 58 52 50 40 37 34 28 69 100 100 100 100 100 100 100 99 62 22 18 17 18 18
54 49 49 42 42 31 26 28 44 57 68 74 72 69 56 47 40 39 42 43 42 41 39 32 27 19 24 63 78 77 78 88 91 97 83 36 26 22 19 18 18 19 21 26
23 18 17 16 19 24 34 37 35 29 26 27 25 25 32 45 54 46 36 31 25 21 20 19 24 27 35 35 32 28 27 28 28 24 23 22 19 20 20 20 23 34 42 42
8 12 16 19 17 17 17 22 32 42 50 48 44 37 30 31 28 24 18 15 15 16 15 16 16 18 18 18 18 19 21 26 34 34 27 22 26 25 32 41 43 43 42 40
12 28 43 41 38 41 43 47 53 51 41 24 18 18 18 17 17 17 18 19 18 18 19 22 24 27 31 31 30 34 36 44 44 38 39 47 46 45 49 48 38 38 43 39
52 50 45 48 48 43 38 29 23 20 18 20 21 21 20 22 23 23 24 28 39 44 44 42 41 42 41 41 40 38 40 39 38 36 32 30 33 37 39 40 40 37 38 42
50 49 39 34 31 24 21 21 24 24 20 23 29 31 32 40 43 41 39 37 35 35 37 38 41 45 45 41 38 37 41 42 41 42 42 43 45 45 44 42 44 47 54 64
31 24 23 21 22 24 25 21 26 38 42 40 37 36 35 35 35 38 43 48 48 46 44 42 42 43 45 48 50 51 51 48 45 44 44 43 37 38 45 58 69 76 78 74
26 30 30 25 23 22 34 51 47 38 34 31 38 43 50 52 53 52 48 45 44 45 47 50 50 51 54 49 47 46 46 46 44 41 40 45 56 67 79 76 78 76 62 57
30 25 23 28 43 50 46 41 38 39 41 47 52 53 50 50 47 43 40 37 37 38 36 36 38 39 43 49 52 52 50 51 54 54 56 62 64 62 60 57 57 56 52 49
26 35 49 57 48 44 41 41 44 46 53 56 55 53 51 48 42 37 36 37 36 36 37 40 48 58 64 65 66 64 58 54 52 52 54 56 55 53 52 50 49 46 58 53
56 64 55 50 49 49 50 53 52 54 55 53 55 52 49 42 36 35 39 43 42 45 43 44 49 52 57 61 56 54 50 46 48 50 52 53 51 47 51 54 60 63 47 50
60 56 55 56 59 59 63 62 59 55 55 55 54 54 47 38 38 43 49 48 46 46 47 50 45 47 49 45 43 43 48 53 52 49 47 47 52 58 60 68 68 63 57 51
66 59 55 57 67 72 72 64 59 60 60 56 52 53 48 45 43 45 44 48 60 58 61 61 63 62 63 66 62 58 54 48 44 47 52 58 60 64 78 78 79 73 58 42
64 64 73 81 83 81 73 65 57 61 58 60 58 57 50 42 44 48 51 47 61 65 69 71 76 76 70 69 63 57 52 53 59 60 65 68 80 85 86 88 86 73 49 29
88 94 94 94 88 85 82 73 66 63 65 70 63 52 51 49 51 65 51 55 72 76 78 80 77 57 59 57 55 55 57 66 74 79 80 83 90 94 98 99 79 57 32 17
93 96 90 88 76 71 96 62 67 67 74 64 56 54 61 50 77 95 75 75 78 80 81 84 76 66 64 61 59 64 80 88 86 86 90 97 98 100 98 79 53 35 20 15
89 86 81 82 67 65 82 84 73 61 68 68 64 55 44 60 93 91 75 77 80 83 91 84 73 73 69 66 74 88 96 85 90 94 100 99 100 100 80 60 39 24 15 11
85 71 63 69 78 71 98 100 83 69 83 89 60 56 54 85 97 90 78 82 96 92 95 84 73 71 77 85 92 100 93 86 94 100 100 100 100 85 66 38 24 15 11 10
64 59 64 73 73 90 100 100 84 77 99 92 87 72 85 100 100 99 84 92 97 92 74 73 83 83 91 96 100 90 84 96 100 91 99 96 79 61 43 20 15 12 11 10
69 77 83 85 73 80 100 99 100 100 99 95 78 78 100 100 100 97 93 99 96 76 76 86 88 94 93 90 81 85 99 96 96 99 85 71 60 40 24 16 12 10 10 8
82 72 77 74 79 76 83 96 99 95 92 69 77 97 100 98 94 100 100 100 90 77 92 92 86 89 86 82 86 99 94 93 90 78 69 47 38 23 17 13 10 10 8 6
93 95 89 100 92 76 94 100 100 98 77 81 100 100 100 94 99 100 98 98 79 90 88 72 77 82 85 85 93 92 94 85 78 65 44 34 23 17 14 10 10 9 7 6
100 100 100 96 100 100 100 100 96 76 83 94 97 94 91 96 100 98 97 84 72 64 62 66 81 89 85 92 90 88 86 69 45 32 30 24 17 15 10 10 9 7 6 5
93 92 99 100 100 95 98 83 72 72 84 94 93 97 96 100 96 94 84 63 61 66 72 86 87 88 88 90 82 82 73 48 36 25 20 17 15 11 10 10 7 6 5 5
100 100 93 89 90 77 74 72 73 87 92 94 91 91 100 97 95 74 58 58 66 77 90 93 91 86 89 82 82 67 47 35 33 20 17 14 11 11 10 8 6 6 5 6

GFSCGP_250_rhum_033.txt.gz
RH
100 100 100 100 100 99 100 100 100 94 92 94 84 81 83 88 92 91 93 90 92 83 87 80 70 55 52 51 42 44 51 73 100 97 100 100 100 100 100 100 96 98 57 21
100 100 100 100 94 93 93 92 93 99 95 93 91 88 90 80 79 77 74 69 64 56 50 45 41 35 28 28 32 91 91 77 92 91 63 65 74 89 68 44 30 25 32 37
98 96 99 98 92 80 71 58 44 34 31 42 53 68 71 60 47 42 39 40 46 45 39 24 20 18 16 17 18 20 29 21 24 26 33 31 26 26 38 49 47 48 48 47
45 52 50 36 30 23 18 19 23 28 34 38 38 36 31 35 40 47 43 31 19 16 17 19 23 30 34 35 35 39 42 45 48 46 51 54 55 51 45 43 43 42 43 44
28 22 18 14 16 21 23 24 23 30 47 48 45 42 45 35 22 18 18 19 22 26 31 43 45 46 44 42 40 37 38 37 41 42 41 42 44 44 40 38 39 39 38 36
17 13 12 15 19 21 22 29 43 47 37 37 31 19 18 19 20 22 26 37 48 48 42 39 39 40 41 41 42 40 39 41 42 40 38 38 41 41 42 41 39 34 32 33
39 35 38 38 40 50 50 47 34 26 20 20 19 23 32 40 42 43 43 42 43 44 45 45 45 44 44 43 40 38 36 34 36 38 39 38 38 38 36 34 31 32 42 50
49 51 52 45 32 26 22 19 20 21 22 31 49 48 45 43 44 45 46 48 48 43 39 36 35 34 32 32 37 43 45 46 48 50 46 43 41 37 36 40 50 57 65 66
47 41 31 23 23 26 27 26 25 39 50 50 44 43 46 49 52 51 48 43 39 35 34 34 34 37 40 42 45 47 49 53 54 52 46 45 46 53 61 61 59 56 53 50
24 23 25 29 33 28 26 41 47 43 43 42 43 45 48 51 50 47 43 39 37 37 42 42 42 45 47 49 44 46 48 52 53 52 55 58 60 58 51 51 52 50 58 70
33 30 27 28 29 48 48 44 44 46 46 48 49 51 51 54 50 46 40 40 39 41 43 47 48 50 54 64 72 72 73 70 59 60 64 60 52 48 47 52 56 66 72 74
28 26 39 55 50 47 48 52 53 54 54 57 57 55 60 56 52 47 47 42 44 51 54 61 68 70 71 76 74 65 55 53 57 57 51 47 44 50 54 62 72 76 78 66
36 55 59 50 50 55 58 61 64 62 59 58 58 62 58 65 60 56 46 44 49 49 61 63 63 67 69 73 62 63 61 52 52 53 46 50 54 62 70 77 78 78 72 82
65 61 56 54 54 58 70 75 72 68 61 55 51 57 56 71 59 56 46 39 36 46 73 61 62 64 69 60 54 59 55 50 54 52 50 54 67 75 82 79 83 85 93 81
71 68 62 59 69 78 86 88 80 76 70 66 58 63 59 67 60 67 53 48 45 59 76 81 81 79 76 68 62 64 61 60 57 48 53 69 78 84 82 87 93 93 70 46
83 74 69 80 90 96 99 90 82 88 78 73 69 74 65 71 80 55 56 42 58 69 76 81 87 90 89 79 72 64 66 63 53 54 73 78 85 88 91 98 97 81 55 36
79 77 89 93 100 100 100 80 91 73 75 71 74 67 75 84 76 82 62 57 75 76 86 99 98 90 84 82 78 65 62 54 52 72 83 90 97 97 98 90 78 61 46 26
91 92 99 96 93 98 98 96 80 66 71 67 72 76 89 90 95 81 65 72 84 90 100 100 96 93 90 86 75 64 56 53 71 93 99 100 100 98 91 84 56 53 28 15
86 88 89 91 81 84 100 98 92 65 74 71 71 95 98 92 79 72 65 74 84 88 96 97 95 93 92 92 73 61 60 70 96 100 100 99 97 90 86 65 48 25 15 13
82 77 82 94 79 78 100 98 88 74 87 94 100 100 100 85 79 78 69 85 86 94 96 96 100 97 94 80 66 65 79 91 100 100 99 93 92 89 70 47 30 17 14 12
70 68 69 66 64 76 95 95 89 97 98 100 100 98 85 78 75 70 70 82 85 92 97 97 93 94 89 72 75 85 92 98 97 94 90 88 93 66 38 27 18 14 12 11
54 55 65 69 87 82 78 84 96 99 96 100 87 78 74 79 70 68 75 87 96 99 94 86 88 95 76 74 79 86 92 91 94 88 84 85 64 36 24 17 14 12 11 11
91 78 74 82 86 64 62 70 78 87 98 88 90 85 87 71 65 70 91 100 98 96 92 89 86 79 80 79 83 96 92 92 88 88 75 57 33 25 21 15 13 11 10 10
96 97 98 91 92 75 75 90 94 96 98 99 93 81 66 64 68 82 91 99 100 87 88 86 82 79 80 91 96 86 90 91 84 74 53 37 26 22 18 14 12 11 10 10
99 99 81 85 95 100 100 100 100 97 90 80 71 68 66 68 71 72 82 97 81 77 70 69 71 80 93 97 90 92 92 81 62 43 32 28 26 21 14 13 10 11 10 9
100 99 100 100 100 100 100 95 86 84 80 76 69 69 72 70 67 75 79 77 66 63 69 74 82 93 86 86 90 97 81 57 37 30 22 25 24 20 14 11 10 10 10 7